TimeCST,TemperatureF,Dew PointF,Humidity,Sea Level PressureIn,VisibilityMPH,Wind Direction,Wind SpeedMPH,Gust SpeedMPH,PrecipitationIn,Events,Conditions,WindDirDegrees,DateUTC
12:15 AM,1.4,-7.6,66,29.79,8.0,WSW,20.7,27.6,N/A,,Overcast,240,2014-01-29 06:15:00
12:35 AM,-0.4,-9.4,66,29.79,10.0,WSW,21.9,27.6,N/A,,Scattered Clouds,250,2014-01-29 06:35:00
12:55 AM,-0.4,-7.6,72,29.78,9.0,WSW,17.3,27.6,N/A,,Mostly Cloudy,250,2014-01-29 06:55:00
1:15 AM,-0.4,-9.4,66,29.78,10.0,WSW,20.7,-,N/A,,Overcast,250,2014-01-29 07:15:00
1:35 AM,-0.4,-9.4,66,29.78,10.0,WSW,18.4,23.0,N/A,,Overcast,250,2014-01-29 07:35:00
1:55 AM,-0.4,-11.2,60,29.79,10.0,WSW,12.7,19.6,N/A,,Overcast,250,2014-01-29 07:55:00
2:15 AM,-0.4,-9.4,66,29.79,10.0,WSW,17.3,21.9,N/A,,Overcast,250,2014-01-29 08:15:00
2:35 AM,-0.4,-11.2,60,29.79,10.0,WSW,13.8,-,N/A,,Overcast,250,2014-01-29 08:35:00
2:55 AM,-0.4,-11.2,60,29.79,10.0,WSW,13.8,-,N/A,,Overcast,250,2014-01-29 08:55:00
3:15 AM,-0.4,-9.4,66,29.79,10.0,WSW,13.8,18.4,N/A,,Overcast,240,2014-01-29 09:15:00
3:35 AM,-0.4,-11.2,60,29.79,10.0,WSW,10.4,18.4,N/A,,Overcast,240,2014-01-29 09:35:00
3:55 AM,-0.4,-13.0,55,29.79,10.0,WSW,12.7,16.1,N/A,,Overcast,240,2014-01-29 09:55:00
4:15 AM,-2.2,-13.0,60,29.79,10.0,WSW,12.7,-,N/A,,Mostly Cloudy,250,2014-01-29 10:15:00
4:35 AM,-2.2,-11.2,66,29.79,10.0,WSW,13.8,-,N/A,,Partly Cloudy,240,2014-01-29 10:35:00
4:55 AM,-2.2,-11.2,66,29.80,10.0,WSW,11.5,16.1,N/A,,Clear,240,2014-01-29 10:55:00
5:15 AM,-2.2,-13.0,60,29.80,10.0,SW,9.2,-,N/A,,Clear,220,2014-01-29 11:15:00
5:35 AM,-4.0,-14.8,60,29.81,10.0,WSW,9.2,-,N/A,,Clear,240,2014-01-29 11:35:00
5:55 AM,-5.8,-14.8,65,29.80,10.0,WSW,11.5,-,N/A,,Clear,250,2014-01-29 11:55:00
6:15 AM,-4.0,-11.2,71,29.80,10.0,WSW,11.5,-,N/A,,Clear,240,2014-01-29 12:15:00
6:35 AM,-4.0,-14.8,60,29.80,10.0,WSW,12.7,-,N/A,,Clear,240,2014-01-29 12:35:00
6:55 AM,-5.8,-13.0,71,29.80,10.0,WSW,12.7,-,N/A,,Clear,240,2014-01-29 12:55:00
7:15 AM,-5.8,-14.8,65,29.80,10.0,WSW,11.5,-,N/A,,Clear,250,2014-01-29 13:15:00
7:35 AM,-5.8,-11.2,77,29.80,10.0,WSW,12.7,-,N/A,,Clear,240,2014-01-29 13:35:00
7:55 AM,-4.0,-14.8,60,29.79,10.0,SW,10.4,-,N/A,,Clear,230,2014-01-29 13:55:00
8:15 AM,-4.0,-11.2,71,29.79,10.0,SW,6.9,-,N/A,,Clear,230,2014-01-29 14:15:00
8:35 AM,-4.0,-14.8,60,29.80,10.0,SW,11.5,-,N/A,,Clear,220,2014-01-29 14:35:00
8:55 AM,-2.2,-7.6,78,29.79,10.0,SW,10.4,-,N/A,,Clear,220,2014-01-29 14:55:00
9:15 AM,-0.4,-11.2,60,29.80,10.0,SW,10.4,-,N/A,,Clear,230,2014-01-29 15:15:00
9:35 AM,-0.4,-9.4,66,29.80,10.0,SW,10.4,-,N/A,,Clear,230,2014-01-29 15:35:00
9:55 AM,1.4,-9.4,61,29.77,10.0,SSW,10.4,-,N/A,,Clear,200,2014-01-29 15:55:00
10:15 AM,3.2,-9.4,56,29.78,10.0,SSW,10.4,-,N/A,,Clear,210,2014-01-29 16:15:00
10:35 AM,5.0,-7.6,56,29.78,10.0,SW,9.2,-,N/A,,Clear,220,2014-01-29 16:35:00
10:55 AM,6.8,-7.6,52,29.78,10.0,SSW,6.9,-,N/A,,Clear,200,2014-01-29 16:55:00
11:15 AM,8.6,-5.8,52,29.79,10.0,SW,10.4,-,N/A,,Clear,220,2014-01-29 17:15:00
11:35 AM,10.4,-4.0,52,29.77,10.0,SW,9.2,-,N/A,,Clear,220,2014-01-29 17:35:00
11:55 AM,12.2,-4.0,48,29.76,10.0,SW,11.5,-,N/A,,Clear,220,2014-01-29 17:55:00
12:15 PM,12.2,-4.0,48,29.74,10.0,SSW,10.4,-,N/A,,Clear,200,2014-01-29 18:15:00
12:35 PM,15.8,-2.2,45,29.73,10.0,SSW,10.4,16.1,N/A,,Clear,210,2014-01-29 18:35:00
12:55 PM,15.8,-2.2,45,29.72,10.0,SSW,13.8,17.3,N/A,,Clear,210,2014-01-29 18:55:00
1:15 PM,17.6,-0.4,45,29.71,10.0,SSW,15.0,20.7,N/A,,Clear,200,2014-01-29 19:15:00
1:35 PM,17.6,-0.4,45,29.70,10.0,SSW,12.7,23.0,N/A,,Clear,210,2014-01-29 19:35:00
1:55 PM,19.4,-0.4,42,29.69,10.0,SSW,10.4,-,N/A,,Clear,200,2014-01-29 19:55:00
2:15 PM,19.4,-0.4,42,29.68,10.0,SSW,15.0,23.0,N/A,,Clear,200,2014-01-29 20:15:00
2:35 PM,19.4,-0.4,42,29.66,10.0,SSW,9.2,23.0,N/A,,Clear,200,2014-01-29 20:35:00
2:55 PM,19.4,-0.4,42,29.65,10.0,SSW,16.1,19.6,N/A,,Clear,200,2014-01-29 20:55:00
3:15 PM,19.4,-0.4,42,29.64,10.0,South,10.4,24.2,N/A,,Scattered Clouds,190,2014-01-29 21:15:00
3:35 PM,19.4,-0.4,42,29.62,10.0,South,8.1,21.9,N/A,,Scattered Clouds,180,2014-01-29 21:35:00
3:55 PM,19.4,-0.4,42,29.60,10.0,South,8.1,25.3,N/A,,Scattered Clouds,190,2014-01-29 21:55:00
4:15 PM,19.4,1.4,46,29.58,10.0,SSW,15.0,19.6,N/A,,Partly Cloudy,200,2014-01-29 22:15:00
4:35 PM,19.4,1.4,46,29.57,10.0,South,9.2,24.2,N/A,,Clear,180,2014-01-29 22:35:00
4:55 PM,17.6,1.4,49,29.55,10.0,South,13.8,23.0,N/A,,Mostly Cloudy,170,2014-01-29 22:55:00
5:15 PM,19.4,1.4,46,29.54,9.0,South,12.7,25.3,N/A,,Mostly Cloudy,190,2014-01-29 23:15:00
5:35 PM,19.4,1.4,46,29.53,8.0,South,11.5,24.2,N/A,,Mostly Cloudy,190,2014-01-29 23:35:00
5:55 PM,19.4,3.2,49,29.53,8.0,SSW,16.1,29.9,N/A,,Overcast,200,2014-01-29 23:55:00
6:15 PM,19.4,3.2,49,29.51,7.0,South,23.0,31.1,N/A,,Overcast,180,2014-01-30 00:15:00
6:35 PM,19.4,3.2,49,29.51,5.0,South,20.7,33.4,N/A,,Overcast,190,2014-01-30 00:35:00
6:55 PM,19.4,1.4,46,29.53,7.0,SSW,18.4,31.1,N/A,,Overcast,200,2014-01-30 00:55:00
7:15 PM,19.4,1.4,46,29.53,8.0,South,16.1,28.8,N/A,,Overcast,190,2014-01-30 01:15:00
7:35 PM,19.4,3.2,49,29.53,7.0,South,19.6,29.9,N/A,,Overcast,190,2014-01-30 01:35:00
7:55 PM,19.4,3.2,49,29.51,7.0,SSW,17.3,31.1,N/A,,Overcast,200,2014-01-30 01:55:00
8:15 PM,19.4,3.2,49,29.50,5.0,South,21.9,34.5,N/A,,Overcast,190,2014-01-30 02:15:00
8:35 PM,19.4,5.0,54,29.50,8.0,South,16.1,29.9,N/A,,Overcast,190,2014-01-30 02:35:00
8:55 PM,19.4,3.2,49,29.49,9.0,SSW,19.6,26.5,N/A,,Mostly Cloudy,200,2014-01-30 02:55:00
9:15 PM,21.2,5.0,50,29.49,10.0,SSW,13.8,20.7,N/A,,Partly Cloudy,210,2014-01-30 03:15:00
9:35 PM,21.2,6.8,54,29.48,10.0,SSW,13.8,26.5,N/A,,Mostly Cloudy,200,2014-01-30 03:35:00
9:55 PM,23.0,6.8,50,29.48,10.0,SSW,17.3,25.3,N/A,,Overcast,210,2014-01-30 03:55:00
10:15 PM,23.0,6.8,50,29.48,10.0,SSW,16.1,23.0,N/A,,Overcast,210,2014-01-30 04:15:00
10:35 PM,24.8,8.6,50,29.48,10.0,SW,16.1,23.0,N/A,,Overcast,220,2014-01-30 04:35:00
10:55 PM,24.8,10.4,54,29.48,10.0,SW,20.7,25.3,N/A,,Overcast,220,2014-01-30 04:55:00
11:15 PM,24.8,10.4,54,29.47,10.0,SW,19.6,28.8,N/A,,Overcast,220,2014-01-30 05:15:00
11:35 PM,24.8,10.4,54,29.47,10.0,SW,20.7,27.6,N/A,,Overcast,220,2014-01-30 05:35:00
11:55 PM,24.8,10.4,54,29.46,10.0,SW,18.4,25.3,N/A,,Mostly Cloudy,220,2014-01-30 05:55:00